Preview of NWS' New Version of Forecast
This preview is not operational and should not be used for support decisions.

Regional Weather Roundup (RWR)

Issued by National Weather Service (NWS)

                            
000
ASUS44 KMEG 211510
RWRTN 
TENNESSEE HOURLY STATE WEATHER ROUNDUP
NATIONAL WEATHER SERVICE MEMPHIS TN
1000 AM CDT SAT SEP 21 2019

TNZ002-004-019-021-049-052-054-088>092-211600-
WEST TENNESSEE
  
CITY           SKY/WX    TMP DP  RH WIND       PRES   REMARKS
MEMPHIS INTL   FAIR      82  59  45 S9        30.24R                  
NWS MEMPHIS      N/A     81 N/A N/A MISG        N/A                   
JACKSON        FAIR      80  61  52 S10       30.26S                  
DYERSBURG      FAIR      80  62  54 VRB6      30.25R                  
SOMERVILLE     SUNNY     81  59  47 S9G15     30.24S                  
COVINGTON      SUNNY     81  59  47 S8        30.24                   
UNION CITY     SUNNY     81  59  47 S9        30.23S                  
BOLIVAR        SUNNY     79  61  53 SE9       30.25S                  
PARIS          SUNNY     79  57  47 S12       30.26R                  
HUNTINGDON     SUNNY     79  59  50 S9        30.26S                  
LEXINGTON      SUNNY     79  59  50 S6        30.27S                  
SELMER         SUNNY     79  57  47 S8        30.26S                  
SAVANNAH       SUNNY     81  59  47 S8        30.27R                  
$$

TNZ008-025-027-028-033-062-065-066-211600-
NORTH MIDDLE TENNESSEE
  
CITY           SKY/WX    TMP DP  RH WIND       PRES   REMARKS
NASHVILLE      PTSUNNY   81  53  37 S8        30.30S                  
DICKSON        SUNNY     79  54  41 SW15      30.28S                  
PORTLAND       SUNNY     79  55  44 S12       30.29F                  
CLARKSVILLE    FAIR      79  58  48 S8        30.27S                  
LEBANON        SUNNY     81  54  39 SW9G17    30.28S                  
SMYRNA         FAIR      80  58  46 S7        30.31S                  
MURFREESBORO   SUNNY     81  55  41 S6G13     30.28S                  
LIVINGSTON     SUNNY     77  52  41 SW9G15    30.33S                  
CROSSVILLE     FAIR      74  52  46 SW7       30.38R                  
ROCKWOOD       SUNNY     73  55  53 SW8G14    30.36S                  
$$

TNZ061-075-076-078-094-096-097-211600-
SOUTH MIDDLE TENNESSEE
  
CITY           SKY/WX    TMP DP  RH WIND       PRES   REMARKS
LAWRENCEBURG   SUNNY     77  55  47 S5G12     30.30S                  
LEWISBURG      SUNNY     79  57  47 S9        30.29F                  
FAYETTEVILLE   SUNNY     77  61  57 S9        30.31S                  
TULLAHOMA      SUNNY     79  59  50 S9        30.31S                  
WINCHESTER     SUNNY     79  59  50 S12       30.31S                  
MCMINNVILLE    SUNNY     79  55  44 VRB6      30.32S                  
COLUMBIA       SUNNY     79  55  44 S6        30.28S                  
SHELBYVILLE    SUNNY     79  57  47 S10       30.31S                  
$$

TNZ017-018-042-046-047-211600-
NORTHEAST TENNESSEE
  
CITY           SKY/WX    TMP DP  RH WIND       PRES   REMARKS
TRI CITIES     FAIR      73  61  65 CALM      30.37S                  
ELIZABETHTON   PTSUNNY   70  61  73 CALM      30.37S                  
GREENEVILLE    SUNNY     75  55  50 W8        30.36S                  
$$

TNZ012-013-036-069-073-074-211600-
CENTRAL EAST TENNESSEE
  
CITY           SKY/WX    TMP DP  RH WIND       PRES   REMARKS
KNOXVILLE      FAIR      76  60  57 SW5       30.34S                  
OAK RIDGE      FAIR      76  56  49 W6        30.36R                  
DOWNTOWN KNOXV SUNNY     77  61  57 CALM      30.34S                  
GATLINBURG     SUNNY     77  61  57 N3        30.33F                  
MORRISTOWN     SUNNY     77  57  50 NW7       30.34F                  
JACKSBORO      SUNNY     75  64  69 CALM      30.38R                  
$$

TNZ083-085-099-211600-
SOUTHEAST TENNESSEE
  
CITY           SKY/WX    TMP DP  RH WIND       PRES   REMARKS
CHATTANOOGA    FAIR      77  60  55 SW5       30.34S                  
$$

SKY/WX REPORTED AS FAIR MEANS FEW OR NO CLOUDS BELOW
12 THOUSAND FEET.